Location: Sungai Dangang
(2.7500°N, 113.8333°E)
Time: 04:53:54
(UTC+00:00)

deb Ariane - Pass Details

Date: 16 May 2021
Orbit: 340 x 24249 km, 7.7° (Epoch: 16 June)

Event Time Altitude Azimuth Distance (km) Brightness Sun altitude
Exits shadow 20:35:16 26° 36° (NE) 753 4.0 -23.8°
Drops below altitude 10° 20:37:16 10° 71° (ENE) 1,626 6.3 -23.4°
Sets 20:40:32 0° 83° (E) 3,304 8.1 -22.6°
